SCP
0 0 0 0 0 0 0 0 0 0 0 0 0 0 0 0 0 0 0 0 0 0 0 0 0 0 0 0 0 0 0 0
0 0 0 0 0 0 0 0 0 0 0 0 0 0 0 0 0 0 0 0 0 0 0 0 0 0 0 0 0 0 0 0
-0 -0 0 0 0 0 0 0 0 0 0 0 0 0 0 0 0 0 0 0 0 0 0 0 0 0 0 0 0 0 0 0
-0 -0 0 0 0 0 0 0 0 0 0 0 0 0 0 0 0 0 0 0 0 0 0 0 0 0 0 0 0 0 0 0
0 0 0 0 0 0 0 0 0 0 0 0 0 0 0 0 0 0 0 0 0 0 0 0 0 0 0 0 0 0 0 0
0 0 0 0 0 0 0 0 0 0 0 0 0 0 0 0 0 0 0 0 0 0 0 0 0 0 0 0 0 0 0 0
0 0 0 0 0 0 0 0 0 0 0 0 0 0 0 0 0 0 0 0 0 0 0 0 0 0 0 0 0 0 0 0
0 0 0 0 0 0 0 0 0 0 0 0 0 0 0 0 0 0 0 0 0 0 0 0 0 0 0 0 0 0 0 0
0 0 0 0 0 0 0 0 0 0 0 0 0 0 0 0 0 0 0 0 0 0 0 0 0 0 0 0 0 0 0 0
0 0 -0 -0 -0 0 0 0 0 0 0 0 0 0 0 0 0 0 0 0 0 0 0 0 0 0 0 0 0 0 0 0
-0 -0 -0 -0 -0 -0 0 0 0 0 0 0 0 0 0 0 0 0 0 0 0 0 0 0 0 0 0 0 0 0 0 0
-0 -0 -0 -0 -0 -0 -0 0 0 0 0 0 0 0 0 0 0 0 0 0 0 0 0 0 0 0 0 0 0 0 0 0
-0 -0 0 0 0 0 0 0 0 0 0 0 0 0 0 0 0 0 0 0 0 0 0 0 0 0 0 0 0 0 0 0
-0 -0 0 0 0 0 0 0 0 0 0 0 0 0 0 0 0 0 0 0 0 0 0 0 0 0 0 0 0 0 0 0
-0 -0 0 0 0 0 0 0 0 0 0 0 0 0 0 0 0 0 0 0 0 0 0 0 0 0 0 0 0 0 0 0
-0 -0 0 0 0 -0 -0 -0 0 0 0 0 0 0 0 0 0 0 0 0 0 0 0 0 0 0 0 0 0 0 0 0
-0 -0 -0 0 0 0 -0 -0 -0 0 0 0 0 0 0 0 0 0 0 0 0 0 0 0 0 0 0 0 0 0 0 0
-0 -0 -0 0 0 0 0 -0 0 0 0 0 0 0 0 0 0 0 0 0 0 0 0 0 0 0 0 0 0 0 0 0
-0 -0 -0 0 -0 0 0 0 0 0 0 0 0 0 0 0 0 0 0 0 0 0 0 0 0 0 0 0 0 0 0 0
-0 -0 -0 -0 -0 0 0 0 0 0 0 0 0 0 0 0 0 0 0 0 0 0 0 0 0 0 0 0 0 0 0 0
Wind_Speed_500mb
52 65 58 49 40 41 49 55 58 61 71 78 84 92 92 89 89 87 83 78 73 69 64 63 64 67 69 71 69 69 69 65
52 56 64 66 66 54 43 48 52 57 63 70 79 82 87 91 90 87 82 80 75 70 67 65 66 67 68 70 69 68 64 60
53 63 62 67 63 67 54 42 45 49 56 62 68 74 80 85 87 85 85 81 78 76 72 68 68 66 68 70 71 67 63 59
53 54 68 74 63 65 68 49 43 45 47 54 61 65 70 74 78 79 78 78 77 77 75 72 71 70 70 69 63 60 61 63
72 72 70 69 66 66 61 57 53 52 49 51 54 59 63 68 70 70 70 71 70 71 71 70 69 66 62 61 60 63 65 63
74 83 81 75 70 70 59 63 59 57 60 59 57 60 62 64 67 67 68 67 67 68 64 63 61 60 61 61 64 64 60 58
74 73 73 74 75 76 66 56 64 68 63 62 61 59 60 61 62 63 65 68 68 68 68 66 64 63 64 62 63 60 56 58
66 65 67 68 70 72 71 64 57 66 69 62 58 56 56 56 59 60 61 61 61 60 58 57 57 58 58 58 53 52 54 58
55 68 75 73 71 73 70 69 65 66 70 65 59 55 53 53 54 55 56 56 57 58 58 58 58 59 59 57 58 57 53 49
69 83 88 77 73 72 77 71 71 70 67 69 68 65 59 58 59 59 59 61 61 60 61 60 59 57 55 50 47 48 50 50
81 88 94 88 75 69 81 84 83 74 68 69 79 78 73 68 66 66 64 64 65 66 65 60 55 53 51 49 46 47 48 47
96 98 100 90 84 89 88 89 83 78 71 71 80 87 83 78 75 71 70 70 70 67 64 61 59 56 52 50 47 45 45 44
94 95 92 96 87 87 97 89 78 76 82 79 77 88 93 89 84 78 75 73 72 69 68 66 62 59 56 51 47 45 43 41
101 104 99 96 93 86 88 87 80 73 71 81 86 85 97 97 90 84 81 80 78 76 74 71 67 62 58 53 51 48 47 45
104 107 109 98 99 97 88 84 81 78 71 78 84 88 96 98 95 91 91 89 86 82 78 76 71 67 64 60 57 52 50 51
99 105 107 99 100 98 94 84 84 79 78 75 79 90 97 100 99 97 97 96 91 87 82 81 81 75 64 61 60 58 56 51
104 98 104 99 95 95 92 86 82 78 81 78 77 82 97 100 102 98 96 93 87 80 77 75 72 65 60 57 54 52 52 50
100 102 102 99 95 88 88 84 82 78 79 81 78 80 91 102 105 102 95 87 80 75 70 68 63 61 60 59 54 51 50 48
98 95 92 92 91 82 77 76 74 70 73 78 81 79 86 99 100 100 98 93 82 73 67 67 65 65 64 62 58 56 53 47
83 80 78 80 79 73 68 67 68 65 68 76 75 75 81 89 92 94 88 85 81 72 65 65 63 64 62 62 62 58 52 48
Wind_Direction_500mb
7 1 355 345 320 283 269 259 255 250 244 247 248 246 246 243 243 246 247 249 246 248 249 247 245 246 246 249 253 254 256 257
354 359 349 348 349 338 294 264 257 254 253 248 248 247 246 244 244 245 245 246 249 249 247 246 245 245 248 250 252 252 252 254
345 341 349 339 341 343 331 288 270 271 262 254 251 249 246 245 244 243 245 248 249 248 247 246 247 246 247 248 249 252 252 255
335 334 328 327 331 337 338 316 292 286 273 261 255 252 249 244 243 245 245 245 245 245 246 248 247 246 247 249 252 252 254 258
325 324 323 316 318 318 322 326 312 292 285 274 262 256 250 246 244 242 241 242 243 245 246 248 249 248 248 247 250 252 252 254
309 316 319 317 322 319 315 308 316 307 289 280 270 259 251 245 242 241 242 244 243 245 247 246 246 244 244 245 246 248 246 250
297 304 309 314 316 316 322 310 299 303 297 284 276 265 255 250 246 243 241 240 241 241 242 243 243 243 242 241 243 246 242 250
302 311 313 314 313 309 316 315 302 295 292 283 276 266 255 245 241 239 239 239 237 237 238 239 239 239 238 235 238 238 240 250
315 316 315 313 309 305 311 309 305 298 288 277 270 259 250 244 239 236 234 235 237 238 238 239 239 240 240 238 236 238 239 240
319 316 317 315 316 303 303 306 300 297 295 278 267 256 244 239 238 236 236 238 238 238 236 236 236 237 238 235 229 228 231 235
325 324 323 317 318 306 302 300 299 299 293 288 268 257 247 242 239 239 238 238 236 234 232 231 229 229 225 225 226 227 225 223
322 319 317 311 311 314 313 301 301 299 292 280 270 257 250 246 241 239 238 235 233 232 231 228 224 223 224 226 223 220 217 215
319 317 314 316 311 307 307 317 308 294 291 280 272 257 248 245 242 239 235 233 231 228 226 223 220 220 222 218 212 210 212 214
315 314 313 317 316 307 307 311 308 299 290 281 272 259 247 241 239 235 232 230 228 226 224 223 218 216 211 209 207 206 206 210
312 310 307 314 312 308 305 307 307 299 289 282 274 259 245 239 236 233 231 228 227 225 224 222 219 213 209 206 205 204 205 209
310 309 305 308 305 304 302 303 302 298 288 279 274 262 243 237 237 233 233 233 231 228 226 223 219 215 213 211 207 206 207 207
310 308 305 304 301 299 300 300 296 292 284 275 267 261 246 236 231 230 232 233 231 229 228 222 222 218 210 207 205 201 200 197
307 305 305 304 301 299 297 295 289 285 280 273 262 255 246 237 234 228 225 226 230 226 219 215 220 212 205 199 193 191 191 193
307 308 306 302 300 301 297 292 286 281 276 266 261 255 246 237 234 230 224 215 212 211 209 206 206 204 197 193 189 188 191 195
310 309 305 302 300 297 294 287 284 280 272 263 257 251 243 235 228 227 223 215 205 197 195 197 196 193 191 192 196 196 195 195
Wind_Speed_850mb
52 65 58 49 40 41 49 55 58 61 71 78 84 92 92 89 89 87 83 78 73 69 64 63 64 67 69 71 69 69 69 65
52 56 64 66 66 54 43 48 52 57 63 70 79 82 87 91 90 87 82 80 75 70 67 65 66 67 68 70 69 68 64 60
53 63 62 67 63 67 54 42 45 49 56 62 68 74 80 85 87 85 85 81 78 76 72 68 68 66 68 70 71 67 63 59
53 54 68 74 63 65 68 49 43 45 47 54 61 65 70 74 78 79 78 78 77 77 75 72 71 70 70 69 63 60 61 63
72 72 70 69 66 66 61 57 53 52 49 51 54 59 63 68 70 70 70 71 70 71 71 70 69 66 62 61 60 63 65 63
74 83 81 75 70 70 59 63 59 57 60 59 57 60 62 64 67 67 68 67 67 68 64 63 61 60 61 61 64 64 60 58
74 73 73 74 75 76 66 56 64 68 63 62 61 59 60 61 62 63 65 68 68 68 68 66 64 63 64 62 63 60 56 58
66 65 67 68 70 72 71 64 57 66 69 62 58 56 56 56 59 60 61 61 61 60 58 57 57 58 58 58 53 52 54 58
55 68 75 73 71 73 70 69 65 66 70 65 59 55 53 53 54 55 56 56 57 58 58 58 58 59 59 57 58 57 53 49
69 83 88 77 73 72 77 71 71 70 67 69 68 65 59 58 59 59 59 61 61 60 61 60 59 57 55 50 47 48 50 50
81 88 94 88 75 69 81 84 83 74 68 69 79 78 73 68 66 66 64 64 65 66 65 60 55 53 51 49 46 47 48 47
96 98 100 90 84 89 88 89 83 78 71 71 80 87 83 78 75 71 70 70 70 67 64 61 59 56 52 50 47 45 45 44
94 95 92 96 87 87 97 89 78 76 82 79 77 88 93 89 84 78 75 73 72 69 68 66 62 59 56 51 47 45 43 41
101 104 99 96 93 86 88 87 80 73 71 81 86 85 97 97 90 84 81 80 78 76 74 71 67 62 58 53 51 48 47 45
104 107 109 98 99 97 88 84 81 78 71 78 84 88 96 98 95 91 91 89 86 82 78 76 71 67 64 60 57 52 50 51
99 105 107 99 100 98 94 84 84 79 78 75 79 90 97 100 99 97 97 96 91 87 82 81 81 75 64 61 60 58 56 51
104 98 104 99 95 95 92 86 82 78 81 78 77 82 97 100 102 98 96 93 87 80 77 75 72 65 60 57 54 52 52 50
100 102 102 99 95 88 88 84 82 78 79 81 78 80 91 102 105 102 95 87 80 75 70 68 63 61 60 59 54 51 50 48
98 95 92 92 91 82 77 76 74 70 73 78 81 79 86 99 100 100 98 93 82 73 67 67 65 65 64 62 58 56 53 47
83 80 78 80 79 73 68 67 68 65 68 76 75 75 81 89 92 94 88 85 81 72 65 65 63 64 62 62 62 58 52 48
Wind_Direction_850mb
7 1 355 345 320 283 269 259 255 250 244 247 248 246 246 243 243 246 247 249 246 248 249 247 245 246 246 249 253 254 256 257
354 359 349 348 349 338 294 264 257 254 253 248 248 247 246 244 244 245 245 246 249 249 247 246 245 245 248 250 252 252 252 254
345 341 349 339 341 343 331 288 270 271 262 254 251 249 246 245 244 243 245 248 249 248 247 246 247 246 247 248 249 252 252 255
335 334 328 327 331 337 338 316 292 286 273 261 255 252 249 244 243 245 245 245 245 245 246 248 247 246 247 249 252 252 254 258
325 324 323 316 318 318 322 326 312 292 285 274 262 256 250 246 244 242 241 242 243 245 246 248 249 248 248 247 250 252 252 254
309 316 319 317 322 319 315 308 316 307 289 280 270 259 251 245 242 241 242 244 243 245 247 246 246 244 244 245 246 248 246 250
297 304 309 314 316 316 322 310 299 303 297 284 276 265 255 250 246 243 241 240 241 241 242 243 243 243 242 241 243 246 242 250
302 311 313 314 313 309 316 315 302 295 292 283 276 266 255 245 241 239 239 239 237 237 238 239 239 239 238 235 238 238 240 250
315 316 315 313 309 305 311 309 305 298 288 277 270 259 250 244 239 236 234 235 237 238 238 239 239 240 240 238 236 238 239 240
319 316 317 315 316 303 303 306 300 297 295 278 267 256 244 239 238 236 236 238 238 238 236 236 236 237 238 235 229 228 231 235
325 324 323 317 318 306 302 300 299 299 293 288 268 257 247 242 239 239 238 238 236 234 232 231 229 229 225 225 226 227 225 223
322 319 317 311 311 314 313 301 301 299 292 280 270 257 250 246 241 239 238 235 233 232 231 228 224 223 224 226 223 220 217 215
319 317 314 316 311 307 307 317 308 294 291 280 272 257 248 245 242 239 235 233 231 228 226 223 220 220 222 218 212 210 212 214
315 314 313 317 316 307 307 311 308 299 290 281 272 259 247 241 239 235 232 230 228 226 224 223 218 216 211 209 207 206 206 210
312 310 307 314 312 308 305 307 307 299 289 282 274 259 245 239 236 233 231 228 227 225 224 222 219 213 209 206 205 204 205 209
310 309 305 308 305 304 302 303 302 298 288 279 274 262 243 237 237 233 233 233 231 228 226 223 219 215 213 211 207 206 207 207
310 308 305 304 301 299 300 300 296 292 284 275 267 261 246 236 231 230 232 233 231 229 228 222 222 218 210 207 205 201 200 197
307 305 305 304 301 299 297 295 289 285 280 273 262 255 246 237 234 228 225 226 230 226 219 215 220 212 205 199 193 191 191 193
307 308 306 302 300 301 297 292 286 281 276 266 261 255 246 237 234 230 224 215 212 211 209 206 206 204 197 193 189 188 191 195
310 309 305 302 300 297 294 287 284 280 272 263 257 251 243 235 228 227 223 215 205 197 195 197 196 193 191 192 196 196 195 195